Date_Time,Julian_Date,Latitude,Longitude,Instrument_Depth,U,V,Speed,Direction
(yyyy-mm-dd hh:mn:ss UTC),(JD),(+ deg. North),(+ deg. East),(m),(cm/s),(cm/s),(cm/s),(deg True)
1983-04-25 19:00:00 UTC,2445450.291667,28.7317,-95.2428,0201,0.34,0.94,1.0000,20.0000
1983-04-25 19:30:00 UTC,2445450.312500,28.7317,-95.2428,0201,-0.71,-0.71,1.0000,225.0000
1983-04-25 20:00:00 UTC,2445450.333333,28.7317,-95.2428,0201,-1.81,-2.40,3.0000,217.0000
1983-04-25 20:30:00 UTC,2445450.354167,28.7317,-95.2428,0201,-2.82,-5.30,6.0000,208.0000
1983-04-25 21:00:00 UTC,2445450.375000,28.7317,-95.2428,0201,-3.26,-9.46,10.0000,199.0000
1983-04-25 21:30:00 UTC,2445450.395833,28.7317,-95.2428,0201,-4.23,-12.29,13.0000,199.0000
1983-04-25 22:00:00 UTC,2445450.416667,28.7317,-95.2428,0201,-5.99,-14.83,16.0000,202.0000
1983-04-25 22:30:00 UTC,2445450.437500,28.7317,-95.2428,0201,-7.03,-16.57,18.0000,203.0000
1983-04-25 23:00:00 UTC,2445450.458333,28.7317,-95.2428,0201,-6.74,-16.69,18.0000,202.0000
1983-04-25 23:30:00 UTC,2445450.479167,28.7317,-95.2428,0201,-7.12,-17.62,19.0000,202.0000
1983-04-26 00:00:00 UTC,2445450.500000,28.7317,-95.2428,0201,-7.12,-17.62,19.0000,202.0000
1983-04-26 00:30:00 UTC,2445450.520833,28.7317,-95.2428,0201,-6.81,-17.74,19.0000,201.0000
1983-04-26 01:00:00 UTC,2445450.541667,28.7317,-95.2428,0201,-6.19,-17.96,19.0000,199.0000
1983-04-26 01:30:00 UTC,2445450.562500,28.7317,-95.2428,0201,-5.56,-18.17,19.0000,197.0000
1983-04-26 02:00:00 UTC,2445450.583333,28.7317,-95.2428,0201,-4.96,-17.30,18.0000,196.0000
1983-04-26 02:30:00 UTC,2445450.604167,28.7317,-95.2428,0201,-5.26,-17.21,18.0000,197.0000
1983-04-26 03:00:00 UTC,2445450.625000,28.7317,-95.2428,0201,-4.68,-15.30,16.0000,197.0000
1983-04-26 03:30:00 UTC,2445450.645833,28.7317,-95.2428,0201,-4.41,-15.38,16.0000,196.0000
1983-04-26 04:00:00 UTC,2445450.666667,28.7317,-95.2428,0201,-3.87,-15.52,16.0000,194.0000
1983-04-26 04:30:00 UTC,2445450.687500,28.7317,-95.2428,0201,-3.87,-15.52,16.0000,194.0000
1983-04-26 05:00:00 UTC,2445450.708333,28.7317,-95.2428,0201,-3.05,-15.71,16.0000,191.0000
1983-04-26 05:30:00 UTC,2445450.729167,28.7317,-95.2428,0201,-2.23,-15.84,16.0000,188.0000
1983-04-26 06:00:00 UTC,2445450.750000,28.7317,-95.2428,0201,-1.83,-14.89,15.0000,187.0000
1983-04-26 06:30:00 UTC,2445450.770833,28.7317,-95.2428,0201,-2.09,-14.85,15.0000,188.0000
1983-04-26 07:00:00 UTC,2445450.791667,28.7317,-95.2428,0201,-2.23,-15.84,16.0000,188.0000
1983-04-26 07:30:00 UTC,2445450.812500,28.7317,-95.2428,0201,-2.50,-15.80,16.0000,189.0000
1983-04-26 08:00:00 UTC,2445450.833333,28.7317,-95.2428,0201,-2.50,-15.80,16.0000,189.0000
1983-04-26 08:30:00 UTC,2445450.854167,28.7317,-95.2428,0201,-2.78,-15.76,16.0000,190.0000
1983-04-26 09:00:00 UTC,2445450.875000,28.7317,-95.2428,0201,-3.82,-16.56,17.0000,193.0000
1983-04-26 09:30:00 UTC,2445450.895833,28.7317,-95.2428,0201,-5.25,-16.17,17.0000,198.0000
1983-04-26 10:00:00 UTC,2445450.916667,28.7317,-95.2428,0201,-6.09,-15.87,17.0000,201.0000
1983-04-26 10:30:00 UTC,2445450.937500,28.7317,-95.2428,0201,-6.37,-15.76,17.0000,202.0000
1983-04-26 11:00:00 UTC,2445450.958333,28.7317,-95.2428,0201,-7.03,-16.57,18.0000,203.0000
1983-04-26 11:30:00 UTC,2445450.979167,28.7317,-95.2428,0201,-7.32,-16.44,18.0000,204.0000
1983-04-26 12:00:00 UTC,2445451.000000,28.7317,-95.2428,0201,-7.32,-16.44,18.0000,204.0000
1983-04-26 12:30:00 UTC,2445451.020833,28.7317,-95.2428,0201,-6.37,-15.76,17.0000,202.0000
1983-04-26 13:00:00 UTC,2445451.041667,28.7317,-95.2428,0201,-5.25,-16.17,17.0000,198.0000
1983-04-26 13:30:00 UTC,2445451.062500,28.7317,-95.2428,0201,-4.41,-15.38,16.0000,196.0000
1983-04-26 14:00:00 UTC,2445451.083333,28.7317,-95.2428,0201,-3.88,-14.49,15.0000,195.0000
1983-04-26 14:30:00 UTC,2445451.104167,28.7317,-95.2428,0201,-3.39,-13.58,14.0000,194.0000
1983-04-26 15:00:00 UTC,2445451.125000,28.7317,-95.2428,0201,-3.15,-13.64,14.0000,193.0000
1983-04-26 15:30:00 UTC,2445451.145833,28.7317,-95.2428,0201,-2.92,-12.67,13.0000,193.0000
1983-04-26 16:00:00 UTC,2445451.166667,28.7317,-95.2428,0201,-2.29,-11.78,12.0000,191.0000
1983-04-26 16:30:00 UTC,2445451.187500,28.7317,-95.2428,0201,-1.91,-10.83,11.0000,190.0000
1983-04-26 17:00:00 UTC,2445451.208333,28.7317,-95.2428,0201,-1.39,-9.90,10.0000,188.0000
1983-04-26 17:30:00 UTC,2445451.229167,28.7317,-95.2428,0201,-1.25,-8.91,9.0000,188.0000
1983-04-26 18:00:00 UTC,2445451.250000,28.7317,-95.2428,0201,-1.56,-8.86,9.0000,190.0000
1983-04-26 18:30:00 UTC,2445451.270833,28.7317,-95.2428,0201,-1.80,-7.79,8.0000,193.0000
1983-04-26 19:00:00 UTC,2445451.291667,28.7317,-95.2428,0201,-1.66,-7.83,8.0000,192.0000
1983-04-26 19:30:00 UTC,2445451.312500,28.7317,-95.2428,0201,-1.53,-7.85,8.0000,191.0000
1983-04-26 20:00:00 UTC,2445451.333333,28.7317,-95.2428,0201,-1.87,-8.80,9.0000,192.0000
1983-04-26 20:30:00 UTC,2445451.354167,28.7317,-95.2428,0201,-2.76,-9.61,10.0000,196.0000
1983-04-26 21:00:00 UTC,2445451.375000,28.7317,-95.2428,0201,-3.76,-10.34,11.0000,200.0000
1983-04-26 21:30:00 UTC,2445451.395833,28.7317,-95.2428,0201,-4.30,-11.20,12.0000,201.0000
1983-04-26 22:00:00 UTC,2445451.416667,28.7317,-95.2428,0201,-4.23,-12.29,13.0000,199.0000
1983-04-26 22:30:00 UTC,2445451.437500,28.7317,-95.2428,0201,-3.62,-13.52,14.0000,195.0000
1983-04-26 23:00:00 UTC,2445451.458333,28.7317,-95.2428,0201,-3.37,-14.62,15.0000,193.0000
1983-04-26 23:30:00 UTC,2445451.479167,28.7317,-95.2428,0201,-3.87,-15.52,16.0000,194.0000
1983-04-27 00:00:00 UTC,2445451.500000,28.7317,-95.2428,0201,-4.97,-16.26,17.0000,197.0000
1983-04-27 00:30:00 UTC,2445451.520833,28.7317,-95.2428,0201,-5.81,-15.97,17.0000,200.0000
1983-04-27 01:00:00 UTC,2445451.541667,28.7317,-95.2428,0201,-6.37,-15.76,17.0000,202.0000
1983-04-27 01:30:00 UTC,2445451.562500,28.7317,-95.2428,0201,-5.99,-14.83,16.0000,202.0000
1983-04-27 02:00:00 UTC,2445451.583333,28.7317,-95.2428,0201,-5.73,-14.94,16.0000,201.0000
1983-04-27 02:30:00 UTC,2445451.604167,28.7317,-95.2428,0201,-5.47,-15.04,16.0000,200.0000
1983-04-27 03:00:00 UTC,2445451.625000,28.7317,-95.2428,0201,-5.21,-15.13,16.0000,199.0000
1983-04-27 03:30:00 UTC,2445451.645833,28.7317,-95.2428,0201,-4.41,-15.38,16.0000,196.0000
1983-04-27 04:00:00 UTC,2445451.666667,28.7317,-95.2428,0201,-3.87,-15.52,16.0000,194.0000
1983-04-27 04:30:00 UTC,2445451.687500,28.7317,-95.2428,0201,-3.87,-15.52,16.0000,194.0000
1983-04-27 05:00:00 UTC,2445451.708333,28.7317,-95.2428,0201,-4.41,-15.38,16.0000,196.0000
1983-04-27 05:30:00 UTC,2445451.729167,28.7317,-95.2428,0201,-4.68,-15.30,16.0000,197.0000
1983-04-27 06:00:00 UTC,2445451.750000,28.7317,-95.2428,0201,-4.64,-14.27,15.0000,198.0000
1983-04-27 06:30:00 UTC,2445451.770833,28.7317,-95.2428,0201,-4.13,-14.42,15.0000,196.0000
1983-04-27 07:00:00 UTC,2445451.791667,28.7317,-95.2428,0201,-3.87,-15.52,16.0000,194.0000
1983-04-27 07:30:00 UTC,2445451.812500,28.7317,-95.2428,0201,-4.11,-16.50,17.0000,194.0000
1983-04-27 08:00:00 UTC,2445451.833333,28.7317,-95.2428,0201,-4.66,-17.39,18.0000,195.0000
1983-04-27 08:30:00 UTC,2445451.854167,28.7317,-95.2428,0201,-5.51,-19.23,20.0000,196.0000
1983-04-27 09:00:00 UTC,2445451.875000,28.7317,-95.2428,0201,-6.06,-21.15,22.0000,196.0000
1983-04-27 09:30:00 UTC,2445451.895833,28.7317,-95.2428,0201,-7.31,-23.91,25.0000,197.0000
1983-04-27 10:00:00 UTC,2445451.916667,28.7317,-95.2428,0201,-8.34,-25.68,27.0000,198.0000
1983-04-27 10:30:00 UTC,2445451.937500,28.7317,-95.2428,0201,-8.34,-25.68,27.0000,198.0000
1983-04-27 11:00:00 UTC,2445451.958333,28.7317,-95.2428,0201,-7.89,-25.82,27.0000,197.0000
1983-04-27 11:30:00 UTC,2445451.979167,28.7317,-95.2428,0201,-8.03,-24.73,26.0000,198.0000
1983-04-27 12:00:00 UTC,2445452.000000,28.7317,-95.2428,0201,-8.96,-23.34,25.0000,201.0000
1983-04-27 12:30:00 UTC,2445452.020833,28.7317,-95.2428,0201,-8.99,-22.25,24.0000,202.0000
1983-04-27 13:00:00 UTC,2445452.041667,28.7317,-95.2428,0201,-8.24,-21.47,23.0000,201.0000
1983-04-27 13:30:00 UTC,2445452.062500,28.7317,-95.2428,0201,-6.49,-19.97,21.0000,198.0000
1983-04-27 14:00:00 UTC,2445452.083333,28.7317,-95.2428,0201,-6.51,-18.91,20.0000,199.0000
1983-04-27 14:30:00 UTC,2445452.104167,28.7317,-95.2428,0201,-7.17,-18.67,20.0000,201.0000
1983-04-27 15:00:00 UTC,2445452.125000,28.7317,-95.2428,0201,-6.51,-18.91,20.0000,199.0000
1983-04-27 15:30:00 UTC,2445452.145833,28.7317,-95.2428,0201,-5.18,-19.32,20.0000,195.0000
1983-04-27 16:00:00 UTC,2445452.166667,28.7317,-95.2428,0201,-4.92,-18.35,19.0000,195.0000
1983-04-27 16:30:00 UTC,2445452.187500,28.7317,-95.2428,0201,-4.66,-17.39,18.0000,195.0000
1983-04-27 17:00:00 UTC,2445452.208333,28.7317,-95.2428,0201,-3.82,-16.56,17.0000,193.0000
1983-04-27 17:30:00 UTC,2445452.229167,28.7317,-95.2428,0201,-3.33,-15.65,16.0000,192.0000
1983-04-27 18:00:00 UTC,2445452.250000,28.7317,-95.2428,0201,-3.60,-15.59,16.0000,193.0000
1983-04-27 18:30:00 UTC,2445452.270833,28.7317,-95.2428,0201,-3.63,-14.55,15.0000,194.0000
1983-04-27 19:00:00 UTC,2445452.291667,28.7317,-95.2428,0201,-3.63,-14.55,15.0000,194.0000
1983-04-27 19:30:00 UTC,2445452.312500,28.7317,-95.2428,0201,-3.37,-14.62,15.0000,193.0000
1983-04-27 20:00:00 UTC,2445452.333333,28.7317,-95.2428,0201,-2.86,-14.72,15.0000,191.0000
1983-04-27 20:30:00 UTC,2445452.354167,28.7317,-95.2428,0201,-3.24,-16.69,17.0000,191.0000
1983-04-27 21:00:00 UTC,2445452.375000,28.7317,-95.2428,0201,-4.05,-17.54,18.0000,193.0000
1983-04-27 21:30:00 UTC,2445452.395833,28.7317,-95.2428,0201,-4.92,-18.35,19.0000,195.0000
1983-04-27 22:00:00 UTC,2445452.416667,28.7317,-95.2428,0201,-5.79,-20.19,21.0000,196.0000
1983-04-27 22:30:00 UTC,2445452.437500,28.7317,-95.2428,0201,-7.49,-21.75,23.0000,199.0000
1983-04-27 23:00:00 UTC,2445452.458333,28.7317,-95.2428,0201,-8.99,-22.25,24.0000,202.0000
1983-04-27 23:30:00 UTC,2445452.479167,28.7317,-95.2428,0201,-10.17,-22.84,25.0000,204.0000
1983-04-28 00:00:00 UTC,2445452.500000,28.7317,-95.2428,0201,-11.80,-23.17,26.0000,207.0000
1983-04-28 00:30:00 UTC,2445452.520833,28.7317,-95.2428,0201,-14.94,-24.86,29.0000,211.0000
1983-04-28 01:00:00 UTC,2445452.541667,28.7317,-95.2428,0201,-15.37,-24.59,29.0000,212.0000
1983-04-28 01:30:00 UTC,2445452.562500,28.7317,-95.2428,0201,-14.50,-25.11,29.0000,210.0000
1983-04-28 02:00:00 UTC,2445452.583333,28.7317,-95.2428,0201,-14.42,-24.00,28.0000,211.0000
1983-04-28 02:30:00 UTC,2445452.604167,28.7317,-95.2428,0201,-13.91,-23.14,27.0000,211.0000
1983-04-28 03:00:00 UTC,2445452.625000,28.7317,-95.2428,0201,-13.09,-23.61,27.0000,209.0000
1983-04-28 03:30:00 UTC,2445452.645833,28.7317,-95.2428,0201,-12.21,-22.96,26.0000,208.0000
1983-04-28 04:00:00 UTC,2445452.666667,28.7317,-95.2428,0201,-11.74,-22.07,25.0000,208.0000
1983-04-28 04:30:00 UTC,2445452.687500,28.7317,-95.2428,0201,-11.35,-22.28,25.0000,207.0000
1983-04-28 05:00:00 UTC,2445452.708333,28.7317,-95.2428,0201,-11.35,-22.28,25.0000,207.0000
1983-04-28 05:30:00 UTC,2445452.729167,28.7317,-95.2428,0201,-11.74,-22.07,25.0000,208.0000
1983-04-28 06:00:00 UTC,2445452.750000,28.7317,-95.2428,0201,-12.36,-20.57,24.0000,211.0000
1983-04-28 06:30:00 UTC,2445452.770833,28.7317,-95.2428,0201,-11.98,-18.45,22.0000,213.0000
1983-04-28 07:00:00 UTC,2445452.791667,28.7317,-95.2428,0201,-10.62,-15.75,19.0000,214.0000
1983-04-28 07:30:00 UTC,2445452.812500,28.7317,-95.2428,0201,-8.50,-14.72,17.0000,210.0000
1983-04-28 08:00:00 UTC,2445452.833333,28.7317,-95.2428,0201,-7.01,-14.38,16.0000,206.0000
1983-04-28 08:30:00 UTC,2445452.854167,28.7317,-95.2428,0201,-6.36,-12.47,14.0000,207.0000
1983-04-28 09:00:00 UTC,2445452.875000,28.7317,-95.2428,0201,-4.82,-9.89,11.0000,206.0000
1983-04-28 09:30:00 UTC,2445452.895833,28.7317,-95.2428,0201,-1.66,-7.83,8.0000,192.0000
1983-04-28 10:00:00 UTC,2445452.916667,28.7317,-95.2428,0201,1.39,-7.88,8.0000,170.0000
1983-04-28 10:30:00 UTC,2445452.937500,28.7317,-95.2428,0201,2.60,-7.56,8.0000,161.0000
1983-04-28 11:00:00 UTC,2445452.958333,28.7317,-95.2428,0201,2.07,-7.73,8.0000,165.0000
1983-04-28 11:30:00 UTC,2445452.979167,28.7317,-95.2428,0201,1.56,-8.86,9.0000,170.0000
1983-04-28 12:00:00 UTC,2445453.000000,28.7317,-95.2428,0201,2.29,-11.78,12.0000,169.0000
1983-04-28 12:30:00 UTC,2445453.020833,28.7317,-95.2428,0201,2.86,-14.72,15.0000,169.0000
1983-04-28 13:00:00 UTC,2445453.041667,28.7317,-95.2428,0201,1.67,-15.91,16.0000,174.0000
1983-04-28 13:30:00 UTC,2445453.062500,28.7317,-95.2428,0201,0.00,-15.00,15.0000,180.0000
1983-04-28 14:00:00 UTC,2445453.083333,28.7317,-95.2428,0201,-0.24,-14.00,14.0000,181.0000
1983-04-28 14:30:00 UTC,2445453.104167,28.7317,-95.2428,0201,0.49,-13.99,14.0000,178.0000
1983-04-28 15:00:00 UTC,2445453.125000,28.7317,-95.2428,0201,0.52,-14.99,15.0000,178.0000
1983-04-28 15:30:00 UTC,2445453.145833,28.7317,-95.2428,0201,-0.56,-15.99,16.0000,182.0000
1983-04-28 16:00:00 UTC,2445453.166667,28.7317,-95.2428,0201,-2.82,-17.78,18.0000,189.0000
1983-04-28 16:30:00 UTC,2445453.187500,28.7317,-95.2428,0201,-5.87,-18.07,19.0000,198.0000
1983-04-28 17:00:00 UTC,2445453.208333,28.7317,-95.2428,0201,-9.00,-15.59,18.0000,210.0000
1983-04-28 17:30:00 UTC,2445453.229167,28.7317,-95.2428,0201,-11.11,-11.51,16.0000,224.0000
1983-04-28 18:00:00 UTC,2445453.250000,28.7317,-95.2428,0201,-12.00,-7.21,14.0000,239.0000
1983-04-28 18:30:00 UTC,2445453.270833,28.7317,-95.2428,0201,-13.81,-5.86,15.0000,247.0000
1983-04-28 19:00:00 UTC,2445453.291667,28.7317,-95.2428,0201,-15.04,-5.47,16.0000,250.0000
1983-04-28 19:30:00 UTC,2445453.312500,28.7317,-95.2428,0201,-15.22,-4.94,16.0000,252.0000
1983-04-28 20:00:00 UTC,2445453.333333,28.7317,-95.2428,0201,-15.38,-4.41,16.0000,254.0000
1983-04-28 20:30:00 UTC,2445453.354167,28.7317,-95.2428,0201,-13.31,-4.33,14.0000,252.0000
1983-04-28 21:00:00 UTC,2445453.375000,28.7317,-95.2428,0201,-9.80,-4.99,11.0000,243.0000
1983-04-28 21:30:00 UTC,2445453.395833,28.7317,-95.2428,0201,-8.43,-7.07,11.0000,230.0000
1983-04-28 22:00:00 UTC,2445453.416667,28.7317,-95.2428,0201,-9.19,-7.71,12.0000,230.0000
1983-04-28 22:30:00 UTC,2445453.437500,28.7317,-95.2428,0201,-11.87,-7.42,14.0000,238.0000
1983-04-28 23:00:00 UTC,2445453.458333,28.7317,-95.2428,0201,-14.13,-7.51,16.0000,242.0000
1983-04-28 23:30:00 UTC,2445453.479167,28.7317,-95.2428,0201,-13.86,-8.00,16.0000,240.0000
1983-04-29 00:00:00 UTC,2445453.500000,28.7317,-95.2428,0201,-11.61,-7.83,14.0000,236.0000
1983-04-29 00:30:00 UTC,2445453.520833,28.7317,-95.2428,0201,-10.10,-8.18,13.0000,231.0000
1983-04-29 01:00:00 UTC,2445453.541667,28.7317,-95.2428,0201,-9.19,-9.19,13.0000,225.0000
1983-04-29 01:30:00 UTC,2445453.562500,28.7317,-95.2428,0201,-9.55,-10.24,14.0000,223.0000
1983-04-29 02:00:00 UTC,2445453.583333,28.7317,-95.2428,0201,-9.90,-9.90,14.0000,225.0000
1983-04-29 02:30:00 UTC,2445453.604167,28.7317,-95.2428,0201,-10.24,-9.55,14.0000,227.0000
1983-04-29 03:00:00 UTC,2445453.625000,28.7317,-95.2428,0201,-10.07,-9.73,14.0000,226.0000
1983-04-29 03:30:00 UTC,2445453.645833,28.7317,-95.2428,0201,-9.51,-8.87,13.0000,227.0000
1983-04-29 04:00:00 UTC,2445453.666667,28.7317,-95.2428,0201,-9.71,-7.05,12.0000,234.0000
1983-04-29 04:30:00 UTC,2445453.687500,28.7317,-95.2428,0201,-9.43,-5.67,11.0000,239.0000
1983-04-29 05:00:00 UTC,2445453.708333,28.7317,-95.2428,0201,-8.75,-4.85,10.0000,241.0000
1983-04-29 05:30:00 UTC,2445453.729167,28.7317,-95.2428,0201,-8.91,-4.54,10.0000,243.0000
1983-04-29 06:00:00 UTC,2445453.750000,28.7317,-95.2428,0201,-8.91,-4.54,10.0000,243.0000
1983-04-29 06:30:00 UTC,2445453.770833,28.7317,-95.2428,0201,-8.75,-4.85,10.0000,241.0000
1983-04-29 07:00:00 UTC,2445453.791667,28.7317,-95.2428,0201,-9.43,-5.67,11.0000,239.0000
1983-04-29 07:30:00 UTC,2445453.812500,28.7317,-95.2428,0201,-9.43,-5.67,11.0000,239.0000
1983-04-29 08:00:00 UTC,2445453.833333,28.7317,-95.2428,0201,-11.26,-6.50,13.0000,240.0000
1983-04-29 08:30:00 UTC,2445453.854167,28.7317,-95.2428,0201,-12.72,-7.95,15.0000,238.0000
1983-04-29 09:00:00 UTC,2445453.875000,28.7317,-95.2428,0201,-12.94,-9.40,16.0000,234.0000
1983-04-29 09:30:00 UTC,2445453.895833,28.7317,-95.2428,0201,-13.21,-10.70,17.0000,231.0000
1983-04-29 10:00:00 UTC,2445453.916667,28.7317,-95.2428,0201,-12.08,-10.50,16.0000,229.0000
1983-04-29 10:30:00 UTC,2445453.937500,28.7317,-95.2428,0201,-11.51,-11.11,16.0000,226.0000
1983-04-29 11:00:00 UTC,2445453.958333,28.7317,-95.2428,0201,-11.70,-10.91,16.0000,227.0000
1983-04-29 11:30:00 UTC,2445453.979167,28.7317,-95.2428,0201,-12.23,-11.81,17.0000,226.0000
1983-04-29 12:00:00 UTC,2445454.000000,28.7317,-95.2428,0201,-12.28,-13.16,18.0000,223.0000
1983-04-29 12:30:00 UTC,2445454.020833,28.7317,-95.2428,0201,-11.57,-13.79,18.0000,220.0000
1983-04-29 13:00:00 UTC,2445454.041667,28.7317,-95.2428,0201,-11.08,-14.18,18.0000,218.0000
1983-04-29 13:30:00 UTC,2445454.062500,28.7317,-95.2428,0201,-11.33,-13.99,18.0000,219.0000
1983-04-29 14:00:00 UTC,2445454.083333,28.7317,-95.2428,0201,-10.83,-14.38,18.0000,217.0000
1983-04-29 14:30:00 UTC,2445454.104167,28.7317,-95.2428,0201,-9.54,-15.26,18.0000,212.0000
1983-04-29 15:00:00 UTC,2445454.125000,28.7317,-95.2428,0201,-9.01,-14.42,17.0000,212.0000
1983-04-29 15:30:00 UTC,2445454.145833,28.7317,-95.2428,0201,-8.43,-11.18,14.0000,217.0000
1983-04-29 16:00:00 UTC,2445454.166667,28.7317,-95.2428,0201,-7.87,-9.06,12.0000,221.0000
1983-04-29 16:30:00 UTC,2445454.187500,28.7317,-95.2428,0201,-6.95,-7.19,10.0000,224.0000
1983-04-29 17:00:00 UTC,2445454.208333,28.7317,-95.2428,0201,-5.75,-5.56,8.0000,226.0000
1983-04-29 17:30:00 UTC,2445454.229167,28.7317,-95.2428,0201,-4.68,-5.20,7.0000,222.0000
1983-04-29 18:00:00 UTC,2445454.250000,28.7317,-95.2428,0201,-3.27,-5.03,6.0000,213.0000
1983-04-29 18:30:00 UTC,2445454.270833,28.7317,-95.2428,0201,-2.91,-5.25,6.0000,209.0000
1983-04-29 19:00:00 UTC,2445454.291667,28.7317,-95.2428,0201,-2.35,-3.24,4.0000,216.0000
1983-04-29 19:30:00 UTC,2445454.312500,28.7317,-95.2428,0201,-2.30,-1.93,3.0000,230.0000
1983-04-29 20:00:00 UTC,2445454.333333,28.7317,-95.2428,0201,-2.33,-1.89,3.0000,231.0000
1983-04-29 20:30:00 UTC,2445454.354167,28.7317,-95.2428,0201,-2.97,-2.68,4.0000,228.0000
1983-04-29 21:00:00 UTC,2445454.375000,28.7317,-95.2428,0201,-3.47,-3.60,5.0000,224.0000
1983-04-29 21:30:00 UTC,2445454.395833,28.7317,-95.2428,0201,-3.61,-4.79,6.0000,217.0000
1983-04-29 22:00:00 UTC,2445454.416667,28.7317,-95.2428,0201,-4.00,-6.93,8.0000,210.0000
1983-04-29 22:30:00 UTC,2445454.437500,28.7317,-95.2428,0201,-4.38,-8.99,10.0000,206.0000
1983-04-29 23:00:00 UTC,2445454.458333,28.7317,-95.2428,0201,-5.08,-11.97,13.0000,203.0000
1983-04-29 23:30:00 UTC,2445454.479167,28.7317,-95.2428,0201,-5.38,-14.00,15.0000,201.0000
1983-04-30 00:00:00 UTC,2445454.500000,28.7317,-95.2428,0201,-6.45,-16.80,18.0000,201.0000
1983-04-30 00:30:00 UTC,2445454.520833,28.7317,-95.2428,0201,-7.81,-18.41,20.0000,203.0000
1983-04-30 01:00:00 UTC,2445454.541667,28.7317,-95.2428,0201,-8.77,-17.98,20.0000,206.0000
1983-04-30 01:30:00 UTC,2445454.562500,28.7317,-95.2428,0201,-8.63,-16.93,19.0000,207.0000
1983-04-30 02:00:00 UTC,2445454.583333,28.7317,-95.2428,0201,-9.21,-16.62,19.0000,209.0000
1983-04-30 02:30:00 UTC,2445454.604167,28.7317,-95.2428,0201,-10.62,-15.75,19.0000,214.0000
1983-04-30 03:00:00 UTC,2445454.625000,28.7317,-95.2428,0201,-12.21,-14.55,19.0000,220.0000
1983-04-30 03:30:00 UTC,2445454.645833,28.7317,-95.2428,0201,-12.04,-13.38,18.0000,222.0000
1983-04-30 04:00:00 UTC,2445454.666667,28.7317,-95.2428,0201,-11.59,-12.43,17.0000,223.0000
1983-04-30 04:30:00 UTC,2445454.687500,28.7317,-95.2428,0201,-10.93,-13.02,17.0000,220.0000
1983-04-30 05:00:00 UTC,2445454.708333,28.7317,-95.2428,0201,-10.90,-15.56,19.0000,215.0000
1983-04-30 05:30:00 UTC,2445454.729167,28.7317,-95.2428,0201,-11.66,-18.66,22.0000,212.0000
1983-04-30 06:00:00 UTC,2445454.750000,28.7317,-95.2428,0201,-12.36,-20.57,24.0000,211.0000
1983-04-30 06:30:00 UTC,2445454.770833,28.7317,-95.2428,0201,-13.19,-18.84,23.0000,215.0000
1983-04-30 07:00:00 UTC,2445454.791667,28.7317,-95.2428,0201,-13.22,-16.32,21.0000,219.0000
1983-04-30 07:30:00 UTC,2445454.812500,28.7317,-95.2428,0201,-12.96,-13.90,19.0000,223.0000
1983-04-30 08:00:00 UTC,2445454.833333,28.7317,-95.2428,0201,-11.81,-12.23,17.0000,224.0000
1983-04-30 08:30:00 UTC,2445454.854167,28.7317,-95.2428,0201,-11.89,-10.71,16.0000,228.0000
1983-04-30 09:00:00 UTC,2445454.875000,28.7317,-95.2428,0201,-11.33,-8.23,14.0000,234.0000
1983-04-30 09:30:00 UTC,2445454.895833,28.7317,-95.2428,0201,-11.47,-8.03,14.0000,235.0000
1983-04-30 10:00:00 UTC,2445454.916667,28.7317,-95.2428,0201,-12.44,-8.39,15.0000,236.0000
1983-04-30 10:30:00 UTC,2445454.937500,28.7317,-95.2428,0201,-14.13,-7.51,16.0000,242.0000
1983-04-30 11:00:00 UTC,2445454.958333,28.7317,-95.2428,0201,-13.81,-5.86,15.0000,247.0000
1983-04-30 11:30:00 UTC,2445454.979167,28.7317,-95.2428,0201,-11.78,-5.49,13.0000,245.0000
1983-04-30 12:00:00 UTC,2445455.000000,28.7317,-95.2428,0201,-10.29,-6.18,12.0000,239.0000
1983-04-30 12:30:00 UTC,2445455.020833,28.7317,-95.2428,0201,-10.78,-7.27,13.0000,236.0000
1983-04-30 13:00:00 UTC,2445455.041667,28.7317,-95.2428,0201,-11.47,-8.03,14.0000,235.0000
1983-04-30 13:30:00 UTC,2445455.062500,28.7317,-95.2428,0201,-11.82,-9.23,15.0000,232.0000
1983-04-30 14:00:00 UTC,2445455.083333,28.7317,-95.2428,0201,-11.66,-9.44,15.0000,231.0000
1983-04-30 14:30:00 UTC,2445455.104167,28.7317,-95.2428,0201,-11.98,-9.03,15.0000,233.0000
1983-04-30 15:00:00 UTC,2445455.125000,28.7317,-95.2428,0201,-12.14,-8.82,15.0000,234.0000
1983-04-30 15:30:00 UTC,2445455.145833,28.7317,-95.2428,0201,-11.03,-8.62,14.0000,232.0000
1983-04-30 16:00:00 UTC,2445455.166667,28.7317,-95.2428,0201,-10.24,-8.00,13.0000,232.0000
1983-04-30 16:30:00 UTC,2445455.187500,28.7317,-95.2428,0201,-10.65,-7.46,13.0000,235.0000
1983-04-30 17:00:00 UTC,2445455.208333,28.7317,-95.2428,0201,-10.20,-4.12,11.0000,248.0000
1983-04-30 17:30:00 UTC,2445455.229167,28.7317,-95.2428,0201,-7.98,0.56,8.0000,274.0000
1983-04-30 18:00:00 UTC,2445455.250000,28.7317,-95.2428,0201,-4.29,2.58,5.0000,301.0000
1983-04-30 18:30:00 UTC,2445455.270833,28.7317,-95.2428,0201,-1.76,2.43,3.0000,324.0000
1983-04-30 19:00:00 UTC,2445455.291667,28.7317,-95.2428,0201,0.10,0.99,1.0000,6.0000
1983-04-30 19:30:00 UTC,2445455.312500,28.7317,-95.2428,0201,0.79,-0.62,1.0000,128.0000
1983-04-30 20:00:00 UTC,2445455.333333,28.7317,-95.2428,0201,1.32,-2.70,3.0000,154.0000
1983-04-30 20:30:00 UTC,2445455.354167,28.7317,-95.2428,0201,1.38,-4.81,5.0000,164.0000
1983-04-30 21:00:00 UTC,2445455.375000,28.7317,-95.2428,0201,1.85,-5.71,6.0000,162.0000
1983-04-30 21:30:00 UTC,2445455.395833,28.7317,-95.2428,0201,2.85,-6.39,7.0000,156.0000
1983-04-30 22:00:00 UTC,2445455.416667,28.7317,-95.2428,0201,4.23,-7.95,9.0000,152.0000
1983-04-30 22:30:00 UTC,2445455.437500,28.7317,-95.2428,0201,4.99,-9.80,11.0000,153.0000
1983-04-30 23:00:00 UTC,2445455.458333,28.7317,-95.2428,0201,4.69,-11.05,12.0000,157.0000
1983-04-30 23:30:00 UTC,2445455.479167,28.7317,-95.2428,0201,5.02,-13.07,14.0000,159.0000
1983-05-01 00:00:00 UTC,2445455.500000,28.7317,-95.2428,0201,6.37,-15.76,17.0000,158.0000
1983-05-01 00:30:00 UTC,2445455.520833,28.7317,-95.2428,0201,6.50,-17.85,19.0000,160.0000
1983-05-01 01:00:00 UTC,2445455.541667,28.7317,-95.2428,0201,6.19,-17.96,19.0000,161.0000
1983-05-01 01:30:00 UTC,2445455.562500,28.7317,-95.2428,0201,5.87,-18.07,19.0000,162.0000
1983-05-01 02:00:00 UTC,2445455.583333,28.7317,-95.2428,0201,5.26,-17.21,18.0000,163.0000
1983-05-01 02:30:00 UTC,2445455.604167,28.7317,-95.2428,0201,4.96,-17.30,18.0000,164.0000
1983-05-01 03:00:00 UTC,2445455.625000,28.7317,-95.2428,0201,5.24,-18.26,19.0000,164.0000
1983-05-01 03:30:00 UTC,2445455.645833,28.7317,-95.2428,0201,5.24,-18.26,19.0000,164.0000
1983-05-01 04:00:00 UTC,2445455.666667,28.7317,-95.2428,0201,4.66,-17.39,18.0000,165.0000
1983-05-01 04:30:00 UTC,2445455.687500,28.7317,-95.2428,0201,3.82,-16.56,17.0000,167.0000
1983-05-01 05:00:00 UTC,2445455.708333,28.7317,-95.2428,0201,2.78,-15.76,16.0000,170.0000
1983-05-01 05:30:00 UTC,2445455.729167,28.7317,-95.2428,0201,1.57,-14.92,15.0000,174.0000